Portada
METAR-TAF:

METAR-TAF

Aeroports :

Sanford Regional Airport

Sanford, Maine, Estats Units d'Amèrica

latitud: 43-24N, longitud: 070-43W, altitud: 74 m

Observació

L'informe es va fer fa 44 minuts, a les 22:56 UTC
Vent 14 kt del Oest amb ràfegues de 21 kt
Temperatura 4°C
Humitat 75%
Pressió 1000 hPa
Visibilitat: 16.1 km
Cel clar

METAR: KSFM 222256Z AUTO 27014G21KT 10SM CLR 04/00 A2953 RMK AO2 SLP006 T00440000

Hora: 18:40 (23:40 UTC)


TAF: manca

Observacions i pronòstics meteorològics de més de 4000 aeroports (METAR i TAF).

Les estacions disponibles són els punts grocs i vermells al mapa.

Posi el ratolí al punt desitjat per veure el nom de l'estació.

Feu clic per veure les observacions i els pronòstics meteorològics.

Per canviar el mapa: feu clic els botons verds amb una creu de color negre per apropar; al botó verd amb un guió per allunyar la imatge; o en les fletxes verdes per a mapes adjacents.


METAR-TAF: